Time,TemperatureF,DewpointF,PressureIn,WindDirection,WindDirectionDegrees,WindSpeedMPH,WindSpeedGustMPH,Humidity,HourlyPrecipIn,Conditions,Clouds,dailyrainin,SoftwareType,DateUTC
2013-03-09 00:01:00,33.6,30.7,30.23,NNW,327,0.0,0.0,89,0.00,,,0.00,meteohub,2013-03-09 05:01:00,
2013-03-09 00:06:00,33.4,30.6,30.23,NNW,327,0.0,0.0,89,0.00,,,0.00,meteohub,2013-03-09 05:06:00,
2013-03-09 00:11:00,33.3,30.4,30.23,NNW,327,0.0,0.0,89,0.00,,,0.00,meteohub,2013-03-09 05:11:00,
2013-03-09 00:16:00,33.4,30.7,30.23,NNW,327,0.0,0.0,90,0.00,,,0.00,meteohub,2013-03-09 05:16:00,
2013-03-09 00:21:00,33.4,30.6,30.23,NNW,327,0.0,0.0,89,0.00,,,0.00,meteohub,2013-03-09 05:21:00,
2013-03-09 00:26:00,33.3,30.4,30.23,NNW,327,0.0,0.0,89,0.00,,,0.00,meteohub,2013-03-09 05:26:00,
2013-03-09 00:31:00,33.3,30.4,30.24,NNW,327,0.0,0.0,89,0.00,,,0.00,meteohub,2013-03-09 05:31:00,
2013-03-09 00:36:00,33.3,30.6,30.24,NNW,327,0.0,0.0,90,0.00,,,0.00,meteohub,2013-03-09 05:36:00,
2013-03-09 00:41:00,33.3,30.6,30.23,NNW,327,0.0,0.0,90,0.00,,,0.00,meteohub,2013-03-09 05:41:00,
2013-03-09 00:46:00,33.4,30.6,30.24,NNW,327,0.0,0.0,89,0.00,,,0.00,meteohub,2013-03-09 05:46:00,
2013-03-09 00:51:00,33.4,30.6,30.24,NNW,327,0.0,0.0,89,0.00,,,0.00,meteohub,2013-03-09 05:51:00,
2013-03-09 00:56:00,33.4,30.6,30.24,NNW,327,0.0,0.0,89,0.00,,,0.00,meteohub,2013-03-09 05:56:00,
2013-03-09 01:01:00,33.6,30.7,30.23,NNW,327,0.0,0.0,89,0.00,,,0.00,meteohub,2013-03-09 06:01:00,
2013-03-09 01:06:00,33.6,30.7,30.24,NNW,327,0.0,0.0,89,0.00,,,0.00,meteohub,2013-03-09 06:06:00,
2013-03-09 01:11:00,33.4,30.6,30.24,NNW,327,0.0,0.0,89,0.00,,,0.00,meteohub,2013-03-09 06:11:00,
2013-03-09 01:16:00,33.4,30.6,30.24,NNW,327,0.0,0.0,89,0.00,,,0.00,meteohub,2013-03-09 06:16:00,
2013-03-09 01:21:00,33.4,30.6,30.24,NW,317,0.0,0.0,89,0.00,,,0.00,meteohub,2013-03-09 06:21:00,
2013-03-09 01:26:00,33.4,30.2,30.24,NW,317,0.0,0.0,88,0.00,,,0.00,meteohub,2013-03-09 06:26:00,
2013-03-09 01:31:00,33.4,30.2,30.24,NW,317,0.0,0.0,88,0.00,,,0.00,meteohub,2013-03-09 06:31:00,
2013-03-09 01:37:00,33.3,30.0,30.23,NW,317,0.0,0.0,88,0.00,,,0.00,meteohub,2013-03-09 06:37:00,
2013-03-09 01:42:00,33.3,30.4,30.24,NW,317,0.0,0.0,89,0.00,,,0.00,meteohub,2013-03-09 06:42:00,
2013-03-09 01:47:00,33.1,30.2,30.24,NW,317,0.0,0.0,89,0.00,,,0.00,meteohub,2013-03-09 06:47:00,
2013-03-09 01:52:00,33.1,30.2,30.24,NW,317,0.0,0.0,89,0.00,,,0.00,meteohub,2013-03-09 06:52:00,
2013-03-09 01:57:00,32.7,29.8,30.23,NW,317,0.0,0.0,89,0.00,,,0.00,meteohub,2013-03-09 06:57:00,
2013-03-09 02:02:00,32.5,29.7,30.23,NW,317,0.0,0.0,89,0.00,,,0.00,meteohub,2013-03-09 07:02:00,
2013-03-09 02:07:00,32.5,30.0,30.23,NW,317,0.0,0.0,90,0.00,,,0.00,meteohub,2013-03-09 07:07:00,
2013-03-09 02:12:00,32.4,29.8,30.23,NW,317,0.0,0.0,90,0.00,,,0.00,meteohub,2013-03-09 07:12:00,
2013-03-09 02:17:00,32.4,29.8,30.23,NW,317,0.0,0.0,90,0.00,,,0.00,meteohub,2013-03-09 07:17:00,
2013-03-09 02:22:00,32.2,29.7,30.23,NW,317,0.0,0.0,90,0.00,,,0.00,meteohub,2013-03-09 07:22:00,
2013-03-09 02:27:00,32.2,29.8,30.23,NW,317,0.0,0.0,91,0.00,,,0.00,meteohub,2013-03-09 07:27:00,
2013-03-09 02:32:00,32.2,29.8,30.22,NW,317,0.0,0.0,91,0.00,,,0.00,meteohub,2013-03-09 07:32:00,
2013-03-09 02:37:00,32.0,29.7,30.22,NW,317,0.0,0.0,91,0.00,,,0.00,meteohub,2013-03-09 07:37:00,
2013-03-09 02:42:00,31.8,29.5,30.22,NW,317,0.0,0.0,91,0.00,,,0.00,meteohub,2013-03-09 07:42:00,
2013-03-09 02:47:00,31.6,29.3,30.22,NW,317,0.0,0.0,91,0.00,,,0.00,meteohub,2013-03-09 07:47:00,
2013-03-09 02:52:00,31.6,29.3,30.22,NW,317,0.0,0.0,91,0.00,,,0.00,meteohub,2013-03-09 07:52:00,
2013-03-09 02:57:00,31.5,29.1,30.22,NW,317,0.0,0.0,91,0.00,,,0.00,meteohub,2013-03-09 07:57:00,
2013-03-09 03:02:00,31.5,29.5,30.22,NW,317,0.0,0.0,92,0.00,,,0.00,meteohub,2013-03-09 08:02:00,
2013-03-09 03:07:00,31.6,29.7,30.22,NW,317,0.0,0.0,92,0.00,,,0.00,meteohub,2013-03-09 08:07:00,
2013-03-09 03:12:00,31.8,29.8,30.22,NW,317,0.0,0.0,92,0.00,,,0.00,meteohub,2013-03-09 08:12:00,
2013-03-09 03:17:00,31.8,29.8,30.22,NW,317,0.0,0.0,92,0.00,,,0.00,meteohub,2013-03-09 08:17:00,
2013-03-09 03:22:00,31.8,29.8,30.22,NW,317,0.0,0.0,92,0.00,,,0.00,meteohub,2013-03-09 08:22:00,
2013-03-09 03:27:00,31.8,29.8,30.22,NW,317,0.0,0.0,92,0.00,,,0.00,meteohub,2013-03-09 08:27:00,
2013-03-09 03:32:00,32.0,30.0,30.22,NW,317,0.0,0.0,92,0.00,,,0.00,meteohub,2013-03-09 08:32:00,
2013-03-09 03:37:00,32.0,30.0,30.22,NW,317,0.0,0.0,92,0.00,,,0.00,meteohub,2013-03-09 08:37:00,
2013-03-09 03:42:00,32.0,30.0,30.22,NW,317,0.0,0.0,92,0.00,,,0.00,meteohub,2013-03-09 08:42:00,
2013-03-09 03:47:00,31.8,29.8,30.22,NW,315,0.0,0.0,92,0.00,,,0.00,meteohub,2013-03-09 08:47:00,
2013-03-09 03:52:00,31.8,29.8,30.22,NW,315,0.0,0.0,92,0.00,,,0.00,meteohub,2013-03-09 08:52:00,
2013-03-09 03:57:00,31.6,29.7,30.22,NW,315,0.0,0.0,92,0.00,,,0.00,meteohub,2013-03-09 08:57:00,
2013-03-09 04:02:00,31.5,29.5,30.22,NW,315,0.0,0.0,92,0.00,,,0.00,meteohub,2013-03-09 09:02:00,
2013-03-09 04:07:00,31.5,29.5,30.22,NW,315,0.0,0.0,92,0.00,,,0.00,meteohub,2013-03-09 09:07:00,
2013-03-09 04:12:00,31.3,29.3,30.22,NW,315,0.0,0.0,92,0.00,,,0.00,meteohub,2013-03-09 09:12:00,
2013-03-09 04:17:00,30.9,28.9,30.22,NW,315,0.0,0.0,92,0.00,,,0.00,meteohub,2013-03-09 09:17:00,
2013-03-09 04:22:00,30.7,28.8,30.22,NW,315,0.0,0.0,92,0.00,,,0.00,meteohub,2013-03-09 09:22:00,
2013-03-09 04:27:00,30.7,28.8,30.22,NW,315,0.0,0.0,92,0.00,,,0.00,meteohub,2013-03-09 09:27:00,
2013-03-09 04:32:00,30.7,28.9,30.22,NW,315,0.0,0.0,93,0.00,,,0.00,meteohub,2013-03-09 09:32:00,
2013-03-09 04:37:00,30.6,28.6,30.23,NW,315,0.0,0.0,92,0.00,,,0.00,meteohub,2013-03-09 09:37:00,
2013-03-09 04:42:00,30.4,28.4,30.23,NW,315,0.0,0.0,92,0.00,,,0.00,meteohub,2013-03-09 09:42:00,
2013-03-09 04:47:00,30.2,28.2,30.23,NW,315,0.0,0.0,92,0.00,,,0.00,meteohub,2013-03-09 09:47:00,
2013-03-09 04:52:00,30.2,28.4,30.24,NW,315,0.0,0.0,93,0.00,,,0.00,meteohub,2013-03-09 09:52:00,
2013-03-09 04:57:00,30.2,28.4,30.24,NW,315,0.0,0.0,93,0.00,,,0.00,meteohub,2013-03-09 09:57:00,
2013-03-09 05:02:00,30.2,28.4,30.24,NW,315,0.0,0.0,93,0.00,,,0.00,meteohub,2013-03-09 10:02:00,
2013-03-09 05:07:00,30.4,28.6,30.24,NW,315,0.0,0.0,93,0.00,,,0.00,meteohub,2013-03-09 10:07:00,
2013-03-09 05:12:00,30.4,28.6,30.24,NW,315,0.0,0.0,93,0.00,,,0.00,meteohub,2013-03-09 10:12:00,
2013-03-09 05:17:00,30.4,28.6,30.24,NW,315,0.0,0.0,93,0.00,,,0.00,meteohub,2013-03-09 10:17:00,
2013-03-09 05:22:00,30.6,28.8,30.24,NW,315,0.0,0.0,93,0.00,,,0.00,meteohub,2013-03-09 10:22:00,
2013-03-09 05:27:00,30.4,28.6,30.24,NW,315,0.0,0.0,93,0.00,,,0.00,meteohub,2013-03-09 10:27:00,
2013-03-09 05:32:00,30.2,28.4,30.24,NW,315,0.0,0.0,93,0.00,,,0.00,meteohub,2013-03-09 10:32:00,
2013-03-09 05:37:00,30.0,28.2,30.24,NW,315,0.0,0.0,93,0.00,,,0.00,meteohub,2013-03-09 10:37:00,
2013-03-09 05:42:00,29.8,28.0,30.24,NW,315,0.0,0.0,93,0.00,,,0.00,meteohub,2013-03-09 10:42:00,
2013-03-09 05:47:00,29.8,28.0,30.24,NW,315,0.0,0.0,93,0.00,,,0.00,meteohub,2013-03-09 10:47:00,
2013-03-09 05:52:00,29.8,28.0,30.24,NW,315,0.0,0.0,93,0.00,,,0.00,meteohub,2013-03-09 10:52:00,
2013-03-09 05:57:00,29.8,28.0,30.24,NW,315,0.0,0.0,93,0.00,,,0.00,meteohub,2013-03-09 10:57:00,
2013-03-09 06:02:00,29.7,27.9,30.24,NW,315,0.0,0.0,93,0.00,,,0.00,meteohub,2013-03-09 11:02:00,
2013-03-09 06:07:00,29.7,27.9,30.24,NW,315,0.0,0.0,93,0.00,,,0.00,meteohub,2013-03-09 11:07:00,
2013-03-09 06:12:00,29.5,27.7,30.24,NW,315,0.0,0.0,93,0.00,,,0.00,meteohub,2013-03-09 11:12:00,
2013-03-09 06:17:00,29.5,27.7,30.24,NW,315,0.0,0.0,93,0.00,,,0.00,meteohub,2013-03-09 11:17:00,
2013-03-09 06:22:00,29.5,28.0,30.25,NW,315,0.0,0.0,94,0.00,,,0.00,meteohub,2013-03-09 11:22:00,
2013-03-09 06:27:00,29.5,28.0,30.25,NW,315,0.0,0.0,94,0.00,,,0.00,meteohub,2013-03-09 11:27:00,
2013-03-09 06:32:00,29.7,28.2,30.25,NW,315,0.0,0.0,94,0.00,,,0.00,meteohub,2013-03-09 11:32:00,
2013-03-09 06:37:00,29.7,28.2,30.25,NW,315,0.0,0.0,94,0.00,,,0.00,meteohub,2013-03-09 11:37:00,
2013-03-09 06:42:00,29.7,28.2,30.25,NW,315,0.0,0.0,94,0.00,,,0.00,meteohub,2013-03-09 11:42:00,
2013-03-09 06:47:00,29.7,28.2,30.25,NW,315,0.0,0.0,94,0.00,,,0.00,meteohub,2013-03-09 11:47:00,
2013-03-09 06:52:00,29.7,28.2,30.25,NW,315,0.0,0.0,94,0.00,,,0.00,meteohub,2013-03-09 11:52:00,
2013-03-09 06:57:00,29.8,28.4,30.25,NW,315,0.0,0.0,94,0.00,,,0.00,meteohub,2013-03-09 11:57:00,
2013-03-09 07:02:00,30.4,29.1,30.25,NW,315,0.0,0.0,95,0.00,,,0.00,meteohub,2013-03-09 12:02:00,
2013-03-09 07:07:00,30.9,29.7,30.25,NW,315,0.0,0.0,95,0.00,,,0.00,meteohub,2013-03-09 12:07:00,
2013-03-09 07:12:00,31.8,30.7,30.26,NW,315,0.0,0.0,96,0.00,,,0.00,meteohub,2013-03-09 12:12:00,
2013-03-09 07:17:00,32.9,31.6,30.25,NW,315,0.0,0.0,95,0.00,,,0.00,meteohub,2013-03-09 12:17:00,
2013-03-09 07:22:00,34.0,32.7,30.26,NW,315,0.0,0.0,95,0.00,,,0.00,meteohub,2013-03-09 12:22:00,
2013-03-09 07:27:00,34.9,33.6,30.26,WSW,251,0.0,0.0,95,0.00,,,0.00,meteohub,2013-03-09 12:27:00,
2013-03-09 07:32:00,36.0,34.2,30.26,SSE,155,0.0,0.0,93,0.00,,,0.00,meteohub,2013-03-09 12:32:00,
2013-03-09 07:37:00,37.0,34.7,30.26,NNE,23,0.0,0.0,91,0.00,,,0.00,meteohub,2013-03-09 12:37:00,
2013-03-09 07:42:00,38.5,34.9,30.26,NE,56,0.0,0.0,87,0.00,,,0.00,meteohub,2013-03-09 12:42:00,
2013-03-09 07:47:00,39.7,35.1,30.26,NE,56,0.0,1.0,83,0.00,,,0.00,meteohub,2013-03-09 12:47:00,
2013-03-09 07:52:00,40.8,34.5,30.26,East,95,0.0,1.0,78,0.00,,,0.00,meteohub,2013-03-09 12:52:00,
2013-03-09 07:57:00,41.7,34.3,30.26,North,9,0.0,1.0,75,0.00,,,0.00,meteohub,2013-03-09 12:57:00,
2013-03-09 08:02:00,42.3,34.2,30.26,ENE,64,0.0,1.0,73,0.00,,,0.00,meteohub,2013-03-09 13:02:00,
2013-03-09 08:07:00,43.2,34.3,30.26,SE,132,0.0,4.0,71,0.00,,,0.00,meteohub,2013-03-09 13:07:00,
2013-03-09 08:12:00,43.5,33.3,30.26,ENE,69,3.0,4.0,67,0.00,,,0.00,meteohub,2013-03-09 13:12:00,
2013-03-09 08:17:00,43.9,34.0,30.26,NE,55,1.0,8.0,68,0.00,,,0.00,meteohub,2013-03-09 13:17:00,
2013-03-09 08:22:00,44.1,33.4,30.27,ESE,121,0.0,8.0,66,0.00,,,0.00,meteohub,2013-03-09 13:22:00,
2013-03-09 08:27:00,44.6,34.0,30.27,ENE,72,0.0,9.0,66,0.00,,,0.00,meteohub,2013-03-09 13:27:00,
2013-03-09 08:32:00,45.1,33.6,30.27,SE,136,0.0,9.0,64,0.00,,,0.00,meteohub,2013-03-09 13:32:00,
2013-03-09 08:37:00,45.9,34.3,30.27,ENE,68,0.0,9.0,64,0.00,,,0.00,meteohub,2013-03-09 13:37:00,
2013-03-09 08:42:00,46.6,34.3,30.27,NE,47,0.0,9.0,62,0.00,,,0.00,meteohub,2013-03-09 13:42:00,
2013-03-09 08:47:00,47.1,34.3,30.27,NE,49,0.0,4.0,61,0.00,,,0.00,meteohub,2013-03-09 13:47:00,
2013-03-09 08:52:00,47.5,33.4,30.27,NNE,18,0.0,4.0,58,0.00,,,0.00,meteohub,2013-03-09 13:52:00,
2013-03-09 08:57:00,47.7,34.0,30.27,NW,325,0.0,4.0,59,0.00,,,0.00,meteohub,2013-03-09 13:57:00,
2013-03-09 09:02:00,48.4,33.8,30.27,ESE,111,0.0,4.0,57,0.00,,,0.00,meteohub,2013-03-09 14:02:00,
2013-03-09 09:07:00,48.7,35.1,30.27,SW,236,0.0,3.0,59,0.00,,,0.00,meteohub,2013-03-09 14:07:00,
2013-03-09 09:12:00,48.9,33.4,30.27,South,178,0.0,3.0,55,0.00,,,0.00,meteohub,2013-03-09 14:12:00,
2013-03-09 09:17:00,49.3,33.3,30.27,SE,132,2.0,5.0,54,0.00,,,0.00,meteohub,2013-03-09 14:17:00,
2013-03-09 09:22:00,49.6,33.6,30.27,NE,43,0.0,5.0,54,0.00,,,0.00,meteohub,2013-03-09 14:22:00,
2013-03-09 09:27:00,50.4,33.8,30.27,NE,56,0.0,7.0,53,0.00,,,0.00,meteohub,2013-03-09 14:27:00,
2013-03-09 09:32:00,51.3,34.2,30.27,WSW,256,0.0,7.0,52,0.00,,,0.00,meteohub,2013-03-09 14:32:00,
2013-03-09 09:37:00,51.4,33.4,30.27,NNW,333,0.0,1.0,50,0.00,,,0.00,meteohub,2013-03-09 14:37:00,
2013-03-09 09:42:00,51.4,32.9,30.27,ENE,76,0.0,1.0,49,0.00,,,0.00,meteohub,2013-03-09 14:42:00,
2013-03-09 09:47:00,52.2,34.5,30.27,WNW,290,1.0,5.0,51,0.00,,,0.00,meteohub,2013-03-09 14:47:00,
2013-03-09 09:52:00,52.5,33.4,30.27,ENE,67,0.0,5.0,48,0.00,,,0.00,meteohub,2013-03-09 14:52:00,
2013-03-09 09:57:00,52.9,34.2,30.27,North,355,0.0,7.0,49,0.00,,,0.00,meteohub,2013-03-09 14:57:00,
2013-03-09 10:02:00,52.9,33.3,30.27,SE,134,0.0,7.0,47,0.00,,,0.00,meteohub,2013-03-09 15:02:00,
2013-03-09 10:07:00,52.3,33.8,30.27,ESE,108,0.0,8.0,49,0.00,,,0.00,meteohub,2013-03-09 15:07:00,
2013-03-09 10:12:00,52.3,33.3,30.27,East,97,0.0,8.0,48,0.00,,,0.00,meteohub,2013-03-09 15:12:00,
2013-03-09 10:17:00,52.9,34.7,30.27,WNW,302,0.0,12.0,50,0.00,,,0.00,meteohub,2013-03-09 15:17:00,
2013-03-09 10:22:00,53.8,35.6,30.26,NW,306,0.0,12.0,50,0.00,,,0.00,meteohub,2013-03-09 15:22:00,
2013-03-09 10:27:00,54.5,35.2,30.26,NE,36,0.0,6.0,48,0.00,,,0.00,meteohub,2013-03-09 15:27:00,
2013-03-09 10:32:00,55.6,36.7,30.27,NE,35,0.0,6.0,49,0.00,,,0.00,meteohub,2013-03-09 15:32:00,
2013-03-09 10:37:00,56.1,35.1,30.27,North,355,0.0,6.0,45,0.00,,,0.00,meteohub,2013-03-09 15:37:00,
2013-03-09 10:42:00,55.6,35.6,30.27,WNW,287,0.0,6.0,47,0.00,,,0.00,meteohub,2013-03-09 15:42:00,
2013-03-09 10:47:00,55.8,36.3,30.27,North,0,1.0,7.0,48,0.00,,,0.00,meteohub,2013-03-09 15:47:00,
2013-03-09 10:52:00,56.5,36.0,30.27,WSW,242,0.0,7.0,46,0.00,,,0.00,meteohub,2013-03-09 15:52:00,
2013-03-09 10:57:00,56.1,35.6,30.27,NNW,336,2.0,5.0,46,0.00,,,0.00,meteohub,2013-03-09 15:57:00,
2013-03-09 11:02:00,56.5,36.0,30.27,NE,51,0.0,5.0,46,0.00,,,0.00,meteohub,2013-03-09 16:02:00,
2013-03-09 11:07:00,56.7,36.1,30.26,West,271,0.0,7.0,46,0.00,,,0.00,meteohub,2013-03-09 16:07:00,
2013-03-09 11:12:00,57.0,36.5,30.26,WNW,286,2.0,8.0,46,0.00,,,0.00,meteohub,2013-03-09 16:12:00,
2013-03-09 11:17:00,55.9,35.4,30.27,SE,146,0.0,9.0,46,0.00,,,0.00,meteohub,2013-03-09 16:17:00,
2013-03-09 11:22:00,56.5,36.0,30.27,NE,34,0.0,9.0,46,0.00,,,0.00,meteohub,2013-03-09 16:22:00,
2013-03-09 11:27:00,57.4,37.4,30.26,NE,42,0.0,9.0,47,0.00,,,0.00,meteohub,2013-03-09 16:27:00,
2013-03-09 11:32:00,58.3,38.7,30.27,NNW,333,3.0,9.0,48,0.00,,,0.00,meteohub,2013-03-09 16:32:00,
2013-03-09 11:37:00,58.3,36.5,30.26,North,355,2.0,7.0,44,0.00,,,0.00,meteohub,2013-03-09 16:37:00,
2013-03-09 11:42:00,58.1,36.9,30.26,West,279,0.0,7.0,45,0.00,,,0.00,meteohub,2013-03-09 16:42:00,
2013-03-09 11:47:00,57.9,37.2,30.26,West,273,4.0,9.0,46,0.00,,,0.00,meteohub,2013-03-09 16:47:00,
2013-03-09 11:52:00,58.8,37.6,30.26,South,177,0.0,9.0,45,0.00,,,0.00,meteohub,2013-03-09 16:52:00,
2013-03-09 11:57:00,59.4,37.9,30.26,WNW,296,2.0,9.0,45,0.00,,,0.00,meteohub,2013-03-09 16:57:00,
2013-03-09 12:02:00,59.2,37.2,30.26,NNW,329,0.0,9.0,44,0.00,,,0.00,meteohub,2013-03-09 17:02:00,
2013-03-09 12:07:00,58.6,37.4,30.26,SE,133,1.0,7.0,45,0.00,,,0.00,meteohub,2013-03-09 17:07:00,
2013-03-09 12:12:00,59.4,38.7,30.26,ENE,62,0.0,7.0,46,0.00,,,0.00,meteohub,2013-03-09 17:12:00,
2013-03-09 12:17:00,60.1,38.7,30.26,SSW,200,0.0,7.0,45,0.00,,,0.00,meteohub,2013-03-09 17:17:00,
2013-03-09 12:22:00,60.6,37.9,30.25,NE,51,2.0,7.0,43,0.00,,,0.00,meteohub,2013-03-09 17:22:00,
2013-03-09 12:27:00,61.0,38.3,30.25,NE,46,0.0,8.0,43,0.00,,,0.00,meteohub,2013-03-09 17:27:00,
2013-03-09 12:32:00,61.2,37.9,30.25,WNW,286,5.0,8.0,42,0.00,,,0.00,meteohub,2013-03-09 17:32:00,
2013-03-09 12:37:00,61.3,38.7,30.25,NNE,19,0.0,7.0,43,0.00,,,0.00,meteohub,2013-03-09 17:37:00,
2013-03-09 12:42:00,61.3,38.1,30.25,West,261,0.0,7.0,42,0.00,,,0.00,meteohub,2013-03-09 17:42:00,
2013-03-09 12:47:00,61.9,39.2,30.24,NNE,32,0.0,6.0,43,0.00,,,0.00,meteohub,2013-03-09 17:47:00,
2013-03-09 12:52:00,61.9,37.9,30.24,WNW,293,9.0,9.0,41,0.00,,,0.00,meteohub,2013-03-09 17:52:00,
2013-03-09 12:57:00,61.7,39.6,30.24,NE,36,0.0,11.0,44,0.00,,,0.00,meteohub,2013-03-09 17:57:00,
2013-03-09 13:02:00,62.2,39.4,30.23,West,275,4.0,11.0,43,0.00,,,0.00,meteohub,2013-03-09 18:02:00,
2013-03-09 13:07:00,62.1,38.1,30.23,WSW,244,0.0,11.0,41,0.00,,,0.00,meteohub,2013-03-09 18:07:00,
2013-03-09 13:12:00,62.2,38.8,30.23,SE,134,0.0,11.0,42,0.00,,,0.00,meteohub,2013-03-09 18:12:00,
2013-03-09 13:17:00,62.2,38.3,30.23,WNW,283,1.0,8.0,41,0.00,,,0.00,meteohub,2013-03-09 18:17:00,
2013-03-09 13:22:00,62.6,39.2,30.23,West,281,0.0,8.0,42,0.00,,,0.00,meteohub,2013-03-09 18:22:00,
2013-03-09 13:27:00,63.1,39.7,30.22,ENE,58,2.0,6.0,42,0.00,,,0.00,meteohub,2013-03-09 18:27:00,
2013-03-09 13:32:00,63.0,38.8,30.22,NNE,30,0.0,6.0,41,0.00,,,0.00,meteohub,2013-03-09 18:32:00,
2013-03-09 13:37:00,63.0,38.8,30.22,NNE,25,0.0,9.0,41,0.00,,,0.00,meteohub,2013-03-09 18:37:00,
2013-03-09 13:42:00,63.0,38.3,30.22,ENE,63,4.0,9.0,40,0.00,,,0.00,meteohub,2013-03-09 18:42:00,
2013-03-09 13:47:00,62.2,38.3,30.22,East,88,6.0,12.0,41,0.00,,,0.00,meteohub,2013-03-09 18:47:00,
2013-03-09 13:52:00,61.9,39.2,30.21,ENE,71,0.0,12.0,43,0.00,,,0.00,meteohub,2013-03-09 18:52:00,
2013-03-09 13:57:00,62.4,39.0,30.21,WNW,296,0.0,14.0,42,0.00,,,0.00,meteohub,2013-03-09 18:57:00,
2013-03-09 14:02:00,63.0,38.8,30.22,NW,313,0.0,14.0,41,0.00,,,0.00,meteohub,2013-03-09 19:02:00,
2013-03-09 14:07:00,63.1,39.0,30.22,ESE,107,0.0,14.0,41,0.00,,,0.00,meteohub,2013-03-09 19:07:00,
2013-03-09 14:12:00,63.3,37.9,30.22,WNW,292,4.0,14.0,39,0.00,,,0.00,meteohub,2013-03-09 19:12:00,
2013-03-09 14:17:00,62.8,38.1,30.21,ESE,103,4.0,11.0,40,0.00,,,0.00,meteohub,2013-03-09 19:17:00,
2013-03-09 14:22:00,63.1,38.5,30.21,ENE,76,0.0,11.0,40,0.00,,,0.00,meteohub,2013-03-09 19:22:00,
2013-03-09 14:27:00,64.0,39.2,30.22,West,270,5.0,11.0,40,0.00,,,0.00,meteohub,2013-03-09 19:27:00,
2013-03-09 14:32:00,63.9,39.0,30.22,WNW,284,1.0,11.0,40,0.00,,,0.00,meteohub,2013-03-09 19:32:00,
2013-03-09 14:38:00,64.0,39.2,30.22,NNW,336,0.0,10.0,40,0.00,,,0.00,meteohub,2013-03-09 19:38:00,
2013-03-09 14:42:00,64.0,39.2,30.22,West,279,4.0,10.0,40,0.00,,,0.00,meteohub,2013-03-09 19:42:00,
2013-03-09 14:47:00,63.5,39.4,30.22,NW,311,3.0,9.0,41,0.00,,,0.00,meteohub,2013-03-09 19:47:00,
2013-03-09 14:52:00,63.3,39.2,30.22,West,269,0.0,9.0,41,0.00,,,0.00,meteohub,2013-03-09 19:52:00,
2013-03-09 14:57:00,63.3,39.9,30.22,SSE,156,0.0,12.0,42,0.00,,,0.00,meteohub,2013-03-09 19:57:00,
2013-03-09 15:02:00,64.4,39.6,30.22,West,265,0.0,12.0,40,0.00,,,0.00,meteohub,2013-03-09 20:02:00,
2013-03-09 15:07:00,64.9,40.6,30.22,NW,305,0.0,12.0,41,0.00,,,0.00,meteohub,2013-03-09 20:07:00,
2013-03-09 15:13:00,65.5,39.2,30.21,ESE,117,0.0,12.0,38,0.00,,,0.00,meteohub,2013-03-09 20:13:00,
2013-03-09 15:18:00,65.5,40.5,30.21,NW,323,0.0,6.0,40,0.00,,,0.00,meteohub,2013-03-09 20:18:00,
2013-03-09 15:23:00,65.1,39.6,30.21,NNE,16,0.0,6.0,39,0.00,,,0.00,meteohub,2013-03-09 20:23:00,
2013-03-09 15:28:00,64.2,38.1,30.21,West,269,0.0,6.0,38,0.00,,,0.00,meteohub,2013-03-09 20:28:00,
2013-03-09 15:33:00,64.0,39.2,30.21,ENE,67,0.0,6.0,40,0.00,,,0.00,meteohub,2013-03-09 20:33:00,
2013-03-09 15:38:00,63.9,39.0,30.21,NE,52,0.0,7.0,40,0.00,,,0.00,meteohub,2013-03-09 20:38:00,
2013-03-09 15:43:00,64.0,39.2,30.21,East,95,1.0,6.0,40,0.00,,,0.00,meteohub,2013-03-09 20:43:00,
2013-03-09 15:48:00,63.3,37.9,30.21,East,89,0.0,7.0,39,0.00,,,0.00,meteohub,2013-03-09 20:48:00,
2013-03-09 15:53:00,63.9,38.5,30.21,WNW,286,0.0,7.0,39,0.00,,,0.00,meteohub,2013-03-09 20:53:00,
2013-03-09 15:58:00,64.6,39.7,30.21,West,281,0.0,7.0,40,0.00,,,0.00,meteohub,2013-03-09 20:58:00,
2013-03-09 16:03:00,64.6,39.0,30.21,WNW,294,0.0,7.0,39,0.00,,,0.00,meteohub,2013-03-09 21:03:00,
2013-03-09 16:08:00,65.1,40.3,30.20,West,263,0.0,6.0,40,0.00,,,0.00,meteohub,2013-03-09 21:08:00,
2013-03-09 16:13:00,65.1,38.1,30.21,West,263,0.0,6.0,37,0.00,,,0.00,meteohub,2013-03-09 21:13:00,
2013-03-09 16:18:00,65.3,39.7,30.20,NNW,331,0.0,4.0,39,0.00,,,0.00,meteohub,2013-03-09 21:18:00,
2013-03-09 16:23:00,64.6,38.5,30.20,ENE,69,0.0,4.0,38,0.00,,,0.00,meteohub,2013-03-09 21:23:00,
2013-03-09 16:28:00,62.8,38.1,30.20,East,94,0.0,11.0,40,0.00,,,0.00,meteohub,2013-03-09 21:28:00,
2013-03-09 16:33:00,63.0,38.8,30.20,ESE,109,0.0,11.0,41,0.00,,,0.00,meteohub,2013-03-09 21:33:00,
2013-03-09 16:38:00,62.8,41.7,30.20,SE,128,1.0,11.0,46,0.00,,,0.00,meteohub,2013-03-09 21:38:00,
2013-03-09 16:43:00,61.9,41.9,30.20,SSW,211,0.0,6.0,48,0.00,,,0.00,meteohub,2013-03-09 21:43:00,
2013-03-09 16:48:00,61.9,42.4,30.20,East,80,2.0,6.0,49,0.00,,,0.00,meteohub,2013-03-09 21:48:00,
2013-03-09 16:53:00,60.6,41.4,30.20,East,86,0.0,5.0,49,0.00,,,0.00,meteohub,2013-03-09 21:53:00,
2013-03-09 16:58:00,59.7,41.5,30.20,SSE,152,0.0,5.0,51,0.00,,,0.00,meteohub,2013-03-09 21:58:00,
2013-03-09 17:03:00,59.4,41.2,30.20,ESE,108,0.0,5.0,51,0.00,,,0.00,meteohub,2013-03-09 22:03:00,
2013-03-09 17:08:00,58.8,41.7,30.21,East,96,1.0,5.0,53,0.00,,,0.00,meteohub,2013-03-09 22:08:00,
2013-03-09 17:13:00,58.5,41.4,30.21,South,169,1.0,5.0,53,0.00,,,0.00,meteohub,2013-03-09 22:13:00,
2013-03-09 17:18:00,58.3,41.2,30.21,East,101,1.0,5.0,53,0.00,,,0.00,meteohub,2013-03-09 22:18:00,
2013-03-09 17:23:00,58.1,41.0,30.21,ESE,112,0.0,6.0,53,0.00,,,0.00,meteohub,2013-03-09 22:23:00,
2013-03-09 17:28:00,57.9,40.8,30.22,ESE,116,0.0,6.0,53,0.00,,,0.00,meteohub,2013-03-09 22:28:00,
2013-03-09 17:33:00,57.6,41.0,30.22,ESE,107,0.0,6.0,54,0.00,,,0.00,meteohub,2013-03-09 22:33:00,
2013-03-09 17:38:00,57.9,41.4,30.22,South,188,0.0,2.0,54,0.00,,,0.00,meteohub,2013-03-09 22:38:00,
2013-03-09 17:43:00,57.9,41.9,30.22,South,185,0.0,2.0,55,0.00,,,0.00,meteohub,2013-03-09 22:43:00,
2013-03-09 17:48:00,57.6,41.9,30.22,SSE,159,0.0,2.0,56,0.00,,,0.00,meteohub,2013-03-09 22:48:00,
2013-03-09 17:53:00,57.2,41.7,30.22,SSW,194,0.0,2.0,56,0.00,,,0.00,meteohub,2013-03-09 22:53:00,
2013-03-09 17:58:00,56.8,41.7,30.23,South,178,0.0,2.0,57,0.00,,,0.00,meteohub,2013-03-09 22:58:00,
2013-03-09 18:03:00,56.1,41.5,30.23,SSW,199,0.0,2.0,58,0.00,,,0.00,meteohub,2013-03-09 23:03:00,
2013-03-09 18:08:00,55.6,41.9,30.23,South,190,0.0,1.0,60,0.00,,,0.00,meteohub,2013-03-09 23:08:00,
2013-03-09 18:13:00,54.9,41.7,30.23,South,190,0.0,1.0,61,0.00,,,0.00,meteohub,2013-03-09 23:13:00,
2013-03-09 18:18:00,54.3,41.5,30.23,SSW,192,0.0,1.0,62,0.00,,,0.00,meteohub,2013-03-09 23:18:00,
2013-03-09 18:23:00,53.8,42.6,30.24,SSW,192,0.0,1.0,66,0.00,,,0.00,meteohub,2013-03-09 23:23:00,
2013-03-09 18:28:00,52.5,42.6,30.24,SSW,192,0.0,0.0,69,0.00,,,0.00,meteohub,2013-03-09 23:28:00,
2013-03-09 18:33:00,51.3,42.3,30.24,SSW,192,0.0,0.0,71,0.00,,,0.00,meteohub,2013-03-09 23:33:00,
2013-03-09 18:38:00,50.4,41.4,30.24,SSW,192,0.0,0.0,71,0.00,,,0.00,meteohub,2013-03-09 23:38:00,
2013-03-09 18:43:00,49.6,41.4,30.24,SSW,192,0.0,0.0,73,0.00,,,0.00,meteohub,2013-03-09 23:43:00,
2013-03-09 18:48:00,48.6,40.6,30.24,SSW,192,0.0,0.0,74,0.00,,,0.00,meteohub,2013-03-09 23:48:00,
2013-03-09 18:53:00,47.8,40.3,30.25,SSW,192,0.0,0.0,75,0.00,,,0.00,meteohub,2013-03-09 23:53:00,
2013-03-09 18:58:00,47.3,40.5,30.25,SSW,192,0.0,0.0,77,0.00,,,0.00,meteohub,2013-03-09 23:58:00,
2013-03-09 19:03:00,46.8,40.3,30.25,SSW,192,0.0,0.0,78,0.00,,,0.00,meteohub,2013-03-10 00:03:00,
2013-03-09 19:08:00,46.0,39.6,30.25,SSW,192,0.0,0.0,78,0.00,,,0.00,meteohub,2013-03-10 00:08:00,
2013-03-09 19:13:00,45.5,39.0,30.25,SSW,192,0.0,0.0,78,0.00,,,0.00,meteohub,2013-03-10 00:13:00,
2013-03-09 19:18:00,45.0,38.5,30.25,SSW,192,0.0,0.0,78,0.00,,,0.00,meteohub,2013-03-10 00:18:00,
2013-03-09 19:23:00,44.4,38.3,30.25,SSW,192,0.0,0.0,79,0.00,,,0.00,meteohub,2013-03-10 00:23:00,
2013-03-09 19:28:00,44.1,38.3,30.25,SSW,192,0.0,0.0,80,0.00,,,0.00,meteohub,2013-03-10 00:28:00,
2013-03-09 19:33:00,43.5,38.1,30.25,SSW,192,0.0,0.0,81,0.00,,,0.00,meteohub,2013-03-10 00:33:00,
2013-03-09 19:38:00,43.2,38.1,30.25,SSW,192,0.0,0.0,82,0.00,,,0.00,meteohub,2013-03-10 00:38:00,
2013-03-09 19:43:00,42.6,37.6,30.25,SSW,192,0.0,0.0,82,0.00,,,0.00,meteohub,2013-03-10 00:43:00,
2013-03-09 19:48:00,42.3,37.8,30.25,SSW,192,0.0,0.0,84,0.00,,,0.00,meteohub,2013-03-10 00:48:00,
2013-03-09 19:53:00,41.9,37.0,30.25,SSW,192,0.0,0.0,83,0.00,,,0.00,meteohub,2013-03-10 00:53:00,
2013-03-09 19:58:00,41.5,37.0,30.25,SSW,192,0.0,0.0,84,0.00,,,0.00,meteohub,2013-03-10 00:58:00,
2013-03-09 20:03:00,41.2,37.0,30.26,SSW,192,0.0,0.0,85,0.00,,,0.00,meteohub,2013-03-10 01:03:00,
2013-03-09 20:08:00,40.8,36.7,30.25,SSW,192,0.0,0.0,85,0.00,,,0.00,meteohub,2013-03-10 01:08:00,
2013-03-09 20:13:00,40.6,37.0,30.25,SSW,192,0.0,0.0,87,0.00,,,0.00,meteohub,2013-03-10 01:13:00,
2013-03-09 20:18:00,40.5,37.2,30.25,SSW,192,0.0,0.0,88,0.00,,,0.00,meteohub,2013-03-10 01:18:00,
2013-03-09 20:23:00,40.5,37.4,30.25,SSW,192,0.0,0.0,89,0.00,,,0.00,meteohub,2013-03-10 01:23:00,
2013-03-09 20:28:00,40.1,36.9,30.25,SSW,192,0.0,0.0,88,0.00,,,0.00,meteohub,2013-03-10 01:28:00,
2013-03-09 20:33:00,39.7,36.1,30.25,SSW,192,0.0,0.0,87,0.00,,,0.00,meteohub,2013-03-10 01:33:00,
2013-03-09 20:38:00,39.2,36.0,30.25,SSW,192,0.0,0.0,88,0.00,,,0.00,meteohub,2013-03-10 01:38:00,
2013-03-09 20:43:00,38.8,35.6,30.26,SSW,192,0.0,0.0,88,0.00,,,0.00,meteohub,2013-03-10 01:43:00,
2013-03-09 20:48:00,38.5,35.2,30.26,SSW,192,0.0,0.0,88,0.00,,,0.00,meteohub,2013-03-10 01:48:00,
2013-03-09 20:53:00,38.1,34.9,30.26,SSW,192,0.0,0.0,88,0.00,,,0.00,meteohub,2013-03-10 01:53:00,
2013-03-09 20:58:00,37.9,34.7,30.26,SSW,192,0.0,0.0,88,0.00,,,0.00,meteohub,2013-03-10 01:58:00,
2013-03-09 21:03:00,37.8,34.9,30.26,SSW,192,0.0,0.0,89,0.00,,,0.00,meteohub,2013-03-10 02:03:00,
2013-03-09 21:08:00,37.4,34.5,30.26,SSW,192,0.0,0.0,89,0.00,,,0.00,meteohub,2013-03-10 02:08:00,
2013-03-09 21:13:00,37.4,34.7,30.26,SSW,192,0.0,0.0,90,0.00,,,0.00,meteohub,2013-03-10 02:13:00,
2013-03-09 21:18:00,37.2,34.5,30.26,SSW,192,0.0,0.0,90,0.00,,,0.00,meteohub,2013-03-10 02:18:00,
2013-03-09 21:23:00,37.2,34.9,30.26,SSW,192,0.0,0.0,91,0.00,,,0.00,meteohub,2013-03-10 02:23:00,
2013-03-09 21:28:00,37.2,34.9,30.26,SSW,192,0.0,0.0,91,0.00,,,0.00,meteohub,2013-03-10 02:28:00,
2013-03-09 21:33:00,37.0,34.7,30.26,SSW,192,0.0,0.0,91,0.00,,,0.00,meteohub,2013-03-10 02:33:00,
2013-03-09 21:38:00,37.0,34.7,30.26,SSW,192,0.0,0.0,91,0.00,,,0.00,meteohub,2013-03-10 02:38:00,
2013-03-09 21:43:00,37.0,34.7,30.26,SSW,192,0.0,0.0,91,0.00,,,0.00,meteohub,2013-03-10 02:43:00,
2013-03-09 21:48:00,36.9,34.5,30.26,SSW,192,0.0,0.0,91,0.00,,,0.00,meteohub,2013-03-10 02:48:00,
2013-03-09 21:53:00,36.3,34.0,30.26,SSW,192,0.0,0.0,91,0.00,,,0.00,meteohub,2013-03-10 02:53:00,
2013-03-09 21:58:00,36.0,33.6,30.26,SSW,192,0.0,0.0,91,0.00,,,0.00,meteohub,2013-03-10 02:58:00,
2013-03-09 22:03:00,35.8,33.4,30.26,SSW,192,0.0,0.0,91,0.00,,,0.00,meteohub,2013-03-10 03:03:00,
2013-03-09 22:08:00,35.4,33.1,30.26,SSW,192,0.0,0.0,91,0.00,,,0.00,meteohub,2013-03-10 03:08:00,
2013-03-09 22:13:00,35.2,32.9,30.26,SSW,192,0.0,0.0,91,0.00,,,0.00,meteohub,2013-03-10 03:13:00,
2013-03-09 22:18:00,35.1,32.7,30.26,SSW,192,0.0,0.0,91,0.00,,,0.00,meteohub,2013-03-10 03:18:00,
2013-03-09 22:23:00,35.1,32.9,30.26,SSW,192,0.0,0.0,92,0.00,,,0.00,meteohub,2013-03-10 03:23:00,
2013-03-09 22:28:00,34.9,32.7,30.26,SSW,192,0.0,0.0,92,0.00,,,0.00,meteohub,2013-03-10 03:28:00,
2013-03-09 22:33:00,34.7,32.5,30.26,SSW,192,0.0,0.0,92,0.00,,,0.00,meteohub,2013-03-10 03:33:00,
2013-03-09 22:38:00,34.5,32.4,30.26,SSW,192,0.0,0.0,92,0.00,,,0.00,meteohub,2013-03-10 03:38:00,
2013-03-09 22:43:00,34.3,32.2,30.26,SSW,192,0.0,0.0,92,0.00,,,0.00,meteohub,2013-03-10 03:43:00,
2013-03-09 22:48:00,34.2,32.0,30.26,SSW,192,0.0,0.0,92,0.00,,,0.00,meteohub,2013-03-10 03:48:00,
2013-03-09 22:53:00,34.2,32.0,30.27,SSW,192,0.0,0.0,92,0.00,,,0.00,meteohub,2013-03-10 03:53:00,
2013-03-09 22:58:00,34.0,31.8,30.27,SSW,192,0.0,0.0,92,0.00,,,0.00,meteohub,2013-03-10 03:58:00,
2013-03-09 23:03:00,34.2,32.4,30.27,SSW,192,0.0,0.0,93,0.00,,,0.00,meteohub,2013-03-10 04:03:00,
2013-03-09 23:08:00,34.5,32.9,30.27,SSW,192,0.0,0.0,94,0.00,,,0.00,meteohub,2013-03-10 04:08:00,
2013-03-09 23:13:00,34.7,33.1,30.26,SSW,192,0.0,0.0,94,0.00,,,0.00,meteohub,2013-03-10 04:13:00,
2013-03-09 23:18:00,34.3,32.5,30.27,SSW,192,0.0,0.0,93,0.00,,,0.00,meteohub,2013-03-10 04:18:00,
2013-03-09 23:23:00,34.2,32.4,30.27,SSW,192,0.0,0.0,93,0.00,,,0.00,meteohub,2013-03-10 04:23:00,
2013-03-09 23:28:00,33.8,32.0,30.27,SSW,192,0.0,0.0,93,0.00,,,0.00,meteohub,2013-03-10 04:28:00,
2013-03-09 23:33:00,33.6,31.8,30.27,SSW,192,0.0,0.0,93,0.00,,,0.00,meteohub,2013-03-10 04:33:00,
2013-03-09 23:38:00,33.4,31.6,30.27,SSW,192,0.0,0.0,93,0.00,,,0.00,meteohub,2013-03-10 04:38:00,
2013-03-09 23:43:00,33.3,31.5,30.27,SSW,192,0.0,0.0,93,0.00,,,0.00,meteohub,2013-03-10 04:43:00,
2013-03-09 23:48:00,33.1,31.3,30.27,SSW,192,0.0,0.0,93,0.00,,,0.00,meteohub,2013-03-10 04:48:00,
2013-03-09 23:53:00,32.5,30.7,30.27,SSW,192,0.0,0.0,93,0.00,,,0.00,meteohub,2013-03-10 04:53:00,
2013-03-09 23:58:00,32.4,30.6,30.27,SSW,192,0.0,0.0,93,0.00,,,0.00,meteohub,2013-03-10 04:58:00,